TITAN 3C TRANSTAGE DEB, 2050

Orbit data source: Space-Track

TITAN 3C TRANSTAGE DEB, 2050 is space debris in LEO originally from a launch on Fri, 15 Oct 1965 UTC launched from the Air Force Eastern Test Range (AFETR). Debris objects in space refer to the collection of defunct objects orbiting the Earth. Examples of debris include non-operational satellites, rocket bodies, and fragments generated from explosions, collisions, or faulty payload assembly.

Loading next visibility...
Identifier
2050, 1965-082JL
Orbit
LEO
Country
Flag of USUS
Related business
Manufacturer
Unknown
Mission
Spacecraft
Bus & Motor
Unknown
Mass
Unknown
Launch date (UTC)
1965-10-15 (60 years ago)
Launch vehicle
Unknown
Launch site
Air Force Eastern Test Range (AFETR)
Object type
Payload
Rocket body
Debris
Shape & HBR
Unknown shape, 0.2 m
Radar Cross Section
Small (<0.1 m²)

Expand to show TLE details & history
Last TLE update: 1 day ago

TLE from 1 day ago
0 TITAN 3C TRANSTAGE DEB
1 02050U 65082JL  26035.11234632  .00001065  00000-0  24289-3 0  9996
2 02050  32.2648 291.6256 0082884 343.0385  16.7496 14.51511131139280
Epoch: 2026-02-04T02:41Z
TLE epoch observation values (Epoch: 2026-02-04T02:41:46.722Z)
Latitude
Longitude
116.89732°
Altitude
663.1 km
Speed
7.558 km/s
True Right ascension
19h 26m 30s
True Declination
0° 00' 00"
Sunlit
Object was in daylight at epoch
Visualization orbit readout
Latitude
Unknown
Longitude
Unknown
Altitude
Unknown
Speed
Unknown
Apparent Right ascension
Unknown
Apparent Declination
Unknown
Sunlit
N/A
Visualization observer readout
Local Sidereal Time
06:43:00
Azimuth
Unknown
Elevation
Unknown
Doppler factor
Unknown
Orbital elements
Apogee altitude
783.143 km
Perigee altitude
665.408 km
Semi-major axis
7,102.412 km
Eccentricity
0.00829
Inclination
32.2648°
RAAN
291.6256°
Arg. of periapsis
343.0385°
True anomaly
17.02606°
Mean anomaly
16.7496°
Eccentric anomaly
16.88755°
Mean motion
3.62605 °/min
Orbital period
99.28 mins
BSTAR
0.00024289

Documentation

Showing up to 5 results
|